Weather History for Agadir Al Massira, Morocco

Change the Weather History Date:

Monday, February 4, 2013

  Actual Average Record
Temperature  
Mean Temperature 60 °F -  
Max Temperature 75 °F - - ()
Min Temperature 46 °F - - ()
Degree Days  
Heating Degree Days 4    
Growing Degree Days 10 (Base 50)    
Moisture  
Dew Point 40 °F    
Average Humidity 53    
Maximum Humidity 87    
Minimum Humidity 13    
Precipitation  
Precipitation 0.00 in - - ()
Sea Level Pressure  
Sea Level Pressure 30.18 in    
Wind  
Wind Speed 5 mph ()    
Max Wind Speed 16 mph    
Max Gust Speed -    
Visibility 4.9 miles    
Events      
T = Trace of Precipitation, MM = Missing Value Source: Averaged Metar Reports

Daily Weather History Graph

Daily Weather History Graph

Search for Another Location

Airport:

Trip Planner

Search our weather history database for the weather conditions in past years. The results will help you decide how hot, cold, wet, or windy it might be!

Date:

Astronomy

Feb. 04, 2013 Rise Set
Actual Time 7:26 AM WET 6:16 PM WET
Civil Twilight 7:01 AM WET 6:41 PM WET
Nautical Twilight 6:32 AM WET 7:10 PM WET
Astronomical Twilight 6:04 AM WET 7:38 PM WET
Moon 1:42 AM WET (2/4) 12:35 PM WET (2/4)
Length of Visible Light 11h 40m
Length of Day
10h 50m
Last Quarter, 40% of the Moon is Illuminated
Feb 4
Last Quarter
Feb 10
New
Feb 17
First Quarter
Feb 25
Full
Mar 4
Last Quarter

Hourly Weather History & Observations

Time (WET) Temp. Dew Point Humidity Pressure Visibility Wind Dir Wind Speed Gust Speed Precip Events Conditions
12:00 AM 50 °F 44 °F 75% 30.12 in 6 mi East 2.3 mph - -  
12:00 AM 50.0 °F 44.6 °F 82% 30.09 in - East 2.3 mph - N/A   Clear
1:00 AM 48.2 °F 42.8 °F 82% 30.12 in - Calm Calm - N/A   Clear
2:00 AM 48.2 °F 44.6 °F 87% 30.12 in - Calm Calm - N/A   Clear
3:00 AM 46.4 °F 42.8 °F 87% 30.12 in - Calm Calm - N/A   Clear
3:49 AM 47 °F 44 °F 83% 30.13 in 6 mi Calm Calm - -  
4:00 AM 50.0 °F 44.6 °F 82% 30.09 in - ENE 10.4 mph - N/A   Clear
5:00 AM 51.8 °F 46.4 °F 82% 30.12 in - ENE 10.4 mph - N/A   Clear
6:00 AM 50 °F 44 °F 73% 30.14 in 6 mi ENE 4.6 mph - -  
6:00 AM 50.0 °F 44.6 °F 82% 30.12 in - ENE 4.6 mph - N/A   Clear
7:00 AM 50.0 °F 44.6 °F 82% 30.15 in - East 6.9 mph - N/A   Clear
8:00 AM 50.0 °F 44.6 °F 82% 30.15 in 3.1 mi East 5.8 mph - N/A   Mostly Cloudy
9:00 AM 57 °F 43 °F 49% 30.22 in 3 mi ENE 8.1 mph - -  
9:00 AM 57.2 °F 42.8 °F 59% 30.21 in 3.1 mi ENE 8.1 mph - N/A   Clear
11:00 AM 68.0 °F 37.4 °F 33% 30.21 in 5.0 mi Variable 2.3 mph - N/A   Unknown
12:00 PM 72 °F 35 °F 16% 30.22 in 5 mi WSW 2.3 mph - -  
12:00 PM 71.6 °F 35.6 °F 27% 30.21 in 5.0 mi Variable 2.3 mph - N/A   Unknown
1:00 PM 75.2 °F 33.8 °F 22% 30.18 in - West 6.9 mph - N/A   Clear
2:00 PM 73.4 °F 33.8 °F 23% 30.18 in 5.0 mi West 12.7 mph - N/A   Unknown
3:00 PM 73 °F 33 °F 13% 30.19 in 5 mi West 13.8 mph - -  
3:00 PM 73.4 °F 33.8 °F 23% 30.18 in 5.0 mi West 13.8 mph - N/A   Unknown
4:00 PM 73.4 °F 30.2 °F 20% 30.18 in 5.0 mi West 16.1 mph - N/A   Unknown
5:00 PM 71.6 °F 33.8 °F 25% 30.18 in - West 13.8 mph - N/A   Clear
6:00 PM 67 °F 36 °F 20% 30.20 in 5 mi West 9.2 mph - -  
6:00 PM 68.0 °F 35.6 °F 30% 30.18 in 5.0 mi West 9.2 mph - N/A   Unknown
7:00 PM 62.6 °F 41.0 °F 45% 30.21 in 5.0 mi SSW 8.1 mph - N/A   Unknown
8:00 PM 60.8 °F 42.8 °F 52% 30.24 in 5.0 mi SSW 8.1 mph - N/A   Unknown
9:00 PM 59 °F 43 °F 43% 30.28 in 5 mi SSW 5.8 mph - -  
9:00 PM 59.0 °F 42.8 °F 55% 30.27 in 5.0 mi SSW 5.8 mph - N/A   Unknown
10:00 PM 59.0 °F 42.8 °F 55% 30.27 in 5.0 mi South 5.8 mph - N/A   Unknown
11:00 PM 51.8 °F 41.0 °F 67% 30.30 in - Calm Calm - N/A   Clear